This is the latest recevied weather packets stored in our database for station/object K2NV. If no packets are shown the sender has not sent any weather packets the latest 10 day(s).
| Time | Temp. | Humidity | Pressure | Rain* | Wind** | Luminosity | Snow |
|---|---|---|---|---|---|---|---|
| 1778013858 | 12.22° C | 84% | 1005.4 hPa | 0.76 mm | - | - | - |
| 1778013556 | 12.22° C | 83% | 1005.1 hPa | 0.51 mm | - | - | - |
| 1778013256 | 12.22° C | 82% | 1005 hPa | 0.25 mm | - | - | - |
| 1778012957 | 12.78° C | 82% | 1004.9 hPa | 0 mm | - | - | - |
| 1778012656 | 12.78° C | 81% | 1004.8 hPa | 0 mm | - | - | - |
| 1778012357 | 13.33° C | 79% | 1004.6 hPa | 0 mm | - | - | - |
| 1778012057 | 13.89° C | 78% | 1004.6 hPa | 0 mm | - | - | - |
| 1778011756 | 13.89° C | 78% | 1004.6 hPa | 0 mm | - | - | - |
| 1778011455 | 14.44° C | 77% | 1004.8 hPa | 0 mm | - | - | - |
| 1778011157 | 15° C | 75% | 1004.7 hPa | 0 mm | - | - | - |
| 1778010858 | 16.11° C | 72% | 1004.7 hPa | 0 mm | - | - | - |
| 1778010558 | 16.67° C | 69% | 1004.7 hPa | 0 mm | - | - | - |
| 1778010258 | 16.67° C | 69% | 1004.5 hPa | 0 mm | - | - | - |
| 1778009957 | 16.67° C | 68% | 1004.2 hPa | 0 mm | - | - | - |
| 1778009358 | 17.22° C | 67% | 1004 hPa | 0 mm | - | - | - |
| 1778009057 | 17.22° C | 68% | 1003.9 hPa | 0 mm | - | - | - |
| 1778008758 | 17.22° C | 68% | 1003.8 hPa | 0 mm | - | - | - |
| 1778008457 | 17.22° C | 69% | 1003.8 hPa | 0 mm | - | - | - |
| 1778008157 | 17.22° C | 69% | 1003.7 hPa | 0 mm | - | - | - |
| 1778007856 | 17.22° C | 70% | 1004 hPa | 0 mm | - | - | - |
| 1778007558 | 17.22° C | 70% | 1004.1 hPa | 0 mm | - | - | - |
| 1778007257 | 17.22° C | 69% | 1004.2 hPa | 0 mm | - | - | - |
| 1778006957 | 17.78° C | 68% | 1004.2 hPa | 0 mm | - | - | - |
| 1778006658 | 17.78° C | 68% | 1004.2 hPa | 0 mm | - | - | - |
| 1778006356 | 17.78° C | 66% | 1004.1 hPa | 0 mm | - | - | - |
* Rain latest hour (hover to see other rain measurements)
** Current wind speed in m/s (hover to see current wind gust speed)